This is the latest recevied weather packets stored in our database for station/object ED2YAA-10. If no packets are shown the sender has not sent any weather packets the latest 10 day(s).
| Time | Temp. | Humidity | Pressure | Rain* | Wind** | Luminosity | Snow |
|---|---|---|---|---|---|---|---|
| 1777374714 | 29.44° C | 39% | 927.5 hPa | - | - | - | - |
| 1777373813 | 28.89° C | 40% | 927.6 hPa | - | - | - | - |
| 1777372912 | 27.78° C | 42% | 927.7 hPa | - | - | - | - |
| 1777372011 | 27.22° C | 42% | 927.8 hPa | - | - | - | - |
| 1777371111 | 26.11° C | 43% | 927.9 hPa | - | - | - | - |
| 1777370211 | 25.56° C | 43% | 927.9 hPa | - | - | - | - |
| 1777369312 | 25° C | 44% | 927.9 hPa | - | - | - | - |
| 1777368411 | 24.44° C | 43% | 927.9 hPa | - | - | - | - |
| 1777367511 | 23.89° C | 44% | 927.9 hPa | - | - | - | - |
| 1777366611 | 23.33° C | 44% | 927.9 hPa | - | - | - | - |
| 1777365711 | 23.33° C | 44% | 927.9 hPa | - | - | - | - |
| 1777364811 | 22.78° C | 44% | 927.9 hPa | - | - | - | - |
| 1777363911 | 22.78° C | 44% | 927.9 hPa | - | - | - | - |
| 1777363011 | 22.78° C | 44% | 927.9 hPa | - | - | - | - |
| 1777362111 | 22.22° C | 44% | 928 hPa | - | - | - | - |
| 1777361211 | 22.78° C | 44% | 928 hPa | - | - | - | - |
| 1777360311 | 22.22° C | 44% | 927.8 hPa | - | - | - | - |
| 1777359412 | 22.22° C | 44% | 927.9 hPa | - | - | - | - |
| 1777358512 | 22.22° C | 44% | 927.9 hPa | - | - | - | - |
| 1777357612 | 22.22° C | 44% | 927.9 hPa | - | - | - | - |
| 1777356711 | 22.22° C | 44% | 927.8 hPa | - | - | - | - |
| 1777355811 | 22.22° C | 43% | 927.8 hPa | - | - | - | - |
| 1777354911 | 22.22° C | 44% | 927.8 hPa | - | - | - | - |
| 1777354011 | 22.22° C | 44% | 927.7 hPa | - | - | - | - |
| 1777353111 | 22.22° C | 43% | 927.6 hPa | - | - | - | - |
* Rain since midnight (hover to see other rain measurements)
** Current wind speed in m/s (hover to see current wind gust speed)